Time,TemperatureF,DewpointF,PressureIn,WindDirection,WindDirectionDegrees,WindSpeedMPH,WindSpeedGustMPH,Humidity,HourlyPrecipIn,Conditions,Clouds,dailyrainin,SoftwareType,DateUTC
2013-04-11 00:03:00,74.0,-99.9,29.80,South,189,5.0,8.0,-999,-99.99,,,-99.99,,2013-04-11 04:03:00,
2013-04-11 00:13:00,-999.0,-99.9,29.81,SSW,209,5.0,8.0,-999,-99.99,,,-99.99,,2013-04-11 04:13:00,
2013-04-11 00:23:00,-999.0,-99.9,29.81,South,180,6.0,9.0,-999,-99.99,,,-99.99,,2013-04-11 04:23:00,
2013-04-11 00:33:00,74.0,-99.9,29.82,South,185,4.0,5.0,-999,-99.99,,,-99.99,,2013-04-11 04:33:00,
2013-04-11 00:43:00,-999.0,-99.9,29.82,South,180,4.0,4.0,-999,-99.99,,,-99.99,,2013-04-11 04:43:00,
2013-04-11 00:53:00,74.0,-99.9,29.81,North,-999,-999.0,-999.0,-999,-99.99,,,-99.99,,2013-04-11 04:53:00,
2013-04-11 01:03:00,74.0,-99.9,29.82,SSW,195,5.0,11.0,-999,-99.99,,,-99.99,,2013-04-11 05:03:00,
2013-04-11 01:13:00,76.0,-99.9,29.82,SE,140,3.0,6.0,-999,-99.99,,,-99.99,,2013-04-11 05:13:00,
2013-04-11 01:23:00,-999.0,-99.9,29.82,SE,138,3.0,4.0,-999,-99.99,,,-99.99,,2013-04-11 05:23:00,
2013-04-11 01:32:00,78.0,-99.9,29.84,North,5,5.0,6.0,-999,-99.99,,,-99.99,,2013-04-11 05:32:00,
2013-04-11 01:42:00,-999.0,-99.9,29.86,North,358,11.0,12.0,-999,-99.99,,,-99.99,,2013-04-11 05:42:00,
2013-04-11 01:52:00,-999.0,-99.9,29.85,NE,47,9.0,20.0,-999,-99.99,,,-99.99,,2013-04-11 05:52:00,
2013-04-11 02:02:00,76.0,-99.9,29.85,NNE,16,10.0,22.0,-999,-99.99,,,-99.99,,2013-04-11 06:02:00,
2013-04-11 02:12:00,75.0,-99.9,29.86,NNE,29,5.0,14.0,-999,-99.99,,,-99.99,,2013-04-11 06:12:00,
2013-04-11 02:22:00,74.0,-99.9,29.85,North,-999,-999.0,-999.0,-999,-99.99,,,-99.99,,2013-04-11 06:22:00,
2013-04-11 02:32:00,74.0,-99.9,29.85,NE,51,4.0,12.0,-999,-99.99,,,-99.99,,2013-04-11 06:32:00,
2013-04-11 02:42:00,73.0,-99.9,29.85,North,-999,-999.0,-999.0,-999,-99.99,,,-99.99,,2013-04-11 06:42:00,
2013-04-11 02:53:00,-999.0,-99.9,29.84,ENE,69,3.0,8.0,-999,-99.99,,,-99.99,,2013-04-11 06:53:00,
2013-04-11 03:02:00,72.0,-99.9,29.85,East,89,2.0,8.0,-999,-99.99,,,-99.99,,2013-04-11 07:02:00,
2013-04-11 03:12:00,-999.0,-99.9,29.85,ENE,73,3.0,6.0,-999,-99.99,,,-99.99,,2013-04-11 07:12:00,
2013-04-11 03:22:00,-999.0,-99.9,29.85,SE,124,3.0,4.0,-999,-99.99,,,-99.99,,2013-04-11 07:22:00,
2013-04-11 03:32:00,71.0,-99.9,29.85,East,94,2.0,6.0,-999,-99.99,,,-99.99,,2013-04-11 07:32:00,
2013-04-11 03:43:00,71.0,-99.9,29.85,ESE,123,2.0,5.0,-999,-99.99,,,-99.99,,2013-04-11 07:43:00,
2013-04-11 03:52:00,70.0,-99.9,29.84,North,-999,-999.0,-999.0,-999,-99.99,,,-99.99,,2013-04-11 07:52:00,
2013-04-11 04:03:00,70.0,-99.9,29.85,SE,141,4.0,4.0,-999,-99.99,,,-99.99,,2013-04-11 08:03:00,
2013-04-11 04:12:00,-999.0,-99.9,29.85,SE,141,4.0,5.0,-999,-99.99,,,-99.99,,2013-04-11 08:12:00,
2013-04-11 04:22:00,-999.0,-99.9,29.85,SSE,162,2.0,3.0,-999,-99.99,,,-99.99,,2013-04-11 08:22:00,
2013-04-11 04:33:00,67.0,-99.9,29.84,SE,139,2.0,3.0,-999,-99.99,,,-99.99,,2013-04-11 08:33:00,
2013-04-11 04:43:00,66.0,-99.9,29.84,SE,145,2.0,3.0,-999,-99.99,,,-99.99,,2013-04-11 08:43:00,
2013-04-11 04:52:00,-999.0,-99.9,29.84,SSE,153,1.0,2.0,-999,-99.99,,,-99.99,,2013-04-11 08:52:00,
2013-04-11 05:02:00,66.0,-99.9,29.83,South,190,0.0,1.0,-999,-99.99,,,-99.99,,2013-04-11 09:02:00,
2013-04-11 05:12:00,65.0,-99.9,29.83,North,-999,-999.0,-999.0,-999,-99.99,,,-99.99,,2013-04-11 09:12:00,
2013-04-11 05:22:00,65.0,-99.9,29.83,North,-999,-999.0,-999.0,-999,-99.99,,,-99.99,,2013-04-11 09:22:00,
2013-04-11 05:33:00,64.0,-99.9,29.84,WSW,254,1.0,2.0,-999,-99.99,,,-99.99,,2013-04-11 09:33:00,
2013-04-11 05:43:00,64.0,-99.9,29.84,WSW,254,1.0,2.0,-999,-99.99,,,-99.99,,2013-04-11 09:43:00,
2013-04-11 05:53:00,64.0,-99.9,29.84,WNW,296,0.0,2.0,-999,-99.99,,,-99.99,,2013-04-11 09:53:00,
2013-04-11 06:03:00,65.0,-99.9,29.84,NNW,334,2.0,3.0,-999,-99.99,,,-99.99,,2013-04-11 10:03:00,
2013-04-11 06:13:00,65.0,-99.9,29.85,North,-999,-999.0,-999.0,-999,-99.99,,,-99.99,,2013-04-11 10:13:00,
2013-04-11 06:23:00,65.0,-99.9,-100.00,North,-999,-999.0,-999.0,-999,-99.99,,,-99.99,,2013-04-11 10:23:00,
2013-04-11 06:32:00,64.0,-99.9,29.85,North,-999,-999.0,-999.0,-999,-99.99,,,-99.99,,2013-04-11 10:32:00,
2013-04-11 06:42:00,64.0,-99.9,29.85,North,-999,-999.0,-999.0,-999,-99.99,,,-99.99,,2013-04-11 10:42:00,
2013-04-11 06:53:00,64.0,-99.9,29.85,North,-999,-999.0,-999.0,-999,-99.99,,,-99.99,,2013-04-11 10:53:00,
2013-04-11 07:03:00,64.0,-99.9,29.85,North,-999,-999.0,-999.0,-999,-99.99,,,-99.99,,2013-04-11 11:03:00,
2013-04-11 07:13:00,63.0,-99.9,29.86,North,-999,-999.0,-999.0,-999,-99.99,,,-99.99,,2013-04-11 11:13:00,
2013-04-11 07:23:00,64.0,-99.9,29.86,North,-999,-999.0,-999.0,-999,-99.99,,,-99.99,,2013-04-11 11:23:00,
2013-04-11 07:32:00,65.0,-99.9,29.87,NNW,329,1.0,2.0,-999,-99.99,,,-99.99,,2013-04-11 11:32:00,
2013-04-11 07:43:00,66.0,-99.9,29.87,North,-999,-999.0,-999.0,-999,-99.99,,,-99.99,,2013-04-11 11:43:00,
2013-04-11 07:53:00,-999.0,-99.9,29.86,NNW,328,3.0,4.0,-999,-99.99,,,-99.99,,2013-04-11 11:53:00,
2013-04-11 08:02:00,67.0,-99.9,29.86,NW,318,-999.0,3.0,-999,-99.99,,,-99.99,,2013-04-11 12:02:00,
2013-04-11 08:13:00,68.0,-99.9,29.87,NW,318,-999.0,1.0,-999,-99.99,,,-99.99,,2013-04-11 12:13:00,
2013-04-11 08:23:00,69.0,-99.9,29.87,North,-999,-999.0,-999.0,-999,-99.99,,,-99.99,,2013-04-11 12:23:00,
2013-04-11 08:32:00,70.0,-99.9,29.87,ESE,116,0.0,2.0,-999,-99.99,,,-99.99,,2013-04-11 12:32:00,
2013-04-11 08:43:00,-999.0,-99.9,29.87,ENE,78,3.0,5.0,-999,-99.99,,,-99.99,,2013-04-11 12:43:00,
2013-04-11 08:53:00,-999.0,-99.9,29.86,East,93,1.0,2.0,-999,-99.99,,,-99.99,,2013-04-11 12:53:00,
2013-04-11 09:02:00,71.0,-99.9,29.86,ENE,62,3.0,4.0,-999,-99.99,,,-99.99,,2013-04-11 13:02:00,
2013-04-11 09:13:00,-999.0,-99.9,29.86,ESE,118,3.0,4.0,-999,-99.99,,,-99.99,,2013-04-11 13:13:00,
2013-04-11 09:23:00,71.0,-99.9,29.86,North,-999,-999.0,-999.0,-999,-99.99,,,-99.99,,2013-04-11 13:23:00,
2013-04-11 09:33:00,73.0,-99.9,29.86,NE,51,2.0,5.0,-999,-99.99,,,-99.99,,2013-04-11 13:33:00,
2013-04-11 09:43:00,73.0,-99.9,29.86,North,-999,-999.0,-999.0,-999,-99.99,,,-99.99,,2013-04-11 13:43:00,
2013-04-11 09:54:00,73.0,-99.9,29.86,North,-999,-999.0,-999.0,-999,-99.99,,,-99.99,,2013-04-11 13:54:00,
2013-04-11 10:03:00,74.0,-99.9,29.86,South,169,3.0,4.0,-999,-99.99,,,-99.99,,2013-04-11 14:03:00,
2013-04-11 10:13:00,73.0,-99.9,29.86,North,-999,-999.0,-999.0,-999,-99.99,,,-99.99,,2013-04-11 14:13:00,
2013-04-11 10:22:00,-999.0,-99.9,29.86,WSW,246,3.0,4.0,-999,-99.99,,,-99.99,,2013-04-11 14:22:00,
2013-04-11 10:33:00,73.0,-99.9,29.86,West,261,2.0,5.0,-999,-99.99,,,-99.99,,2013-04-11 14:33:00,
2013-04-11 10:43:00,73.0,-99.9,29.85,South,188,3.0,3.0,-999,-99.99,,,-99.99,,2013-04-11 14:43:00,
2013-04-11 10:53:00,-999.0,-99.9,29.86,South,190,3.0,4.0,-999,-99.99,,,-99.99,,2013-04-11 14:53:00,
2013-04-11 11:03:00,73.0,-99.9,29.86,South,191,5.0,6.0,-999,-99.99,,,-99.99,,2013-04-11 15:03:00,
2013-04-11 11:12:00,-999.0,-99.9,29.86,SSW,193,5.0,7.0,-999,-99.99,,,-99.99,,2013-04-11 15:12:00,
2013-04-11 11:22:00,-999.0,-99.9,29.86,SW,222,3.0,5.0,-999,-99.99,,,-99.99,,2013-04-11 15:22:00,
2013-04-11 11:32:00,75.0,-99.9,29.86,SW,222,4.0,5.0,-999,-99.99,,,-99.99,,2013-04-11 15:32:00,
2013-04-11 11:43:00,74.0,-99.9,29.86,South,191,4.0,6.0,-999,-99.99,,,-99.99,,2013-04-11 15:43:00,
2013-04-11 11:53:00,73.0,-99.9,29.86,North,-999,-999.0,-999.0,-999,-99.99,,,-99.99,,2013-04-11 15:53:00,
2013-04-11 12:02:00,73.0,-99.9,29.86,SSE,165,4.0,4.0,-999,-99.99,,,-99.99,,2013-04-11 16:02:00,
2013-04-11 12:13:00,-999.0,-99.9,29.86,SSE,158,5.0,6.0,-999,-99.99,,,-99.99,,2013-04-11 16:13:00,
2013-04-11 12:23:00,75.0,-99.9,29.85,North,-999,-999.0,-999.0,-999,-99.99,,,-99.99,,2013-04-11 16:23:00,
2013-04-11 12:33:00,76.0,-99.9,29.84,SSW,192,3.0,5.0,-999,-99.99,,,-99.99,,2013-04-11 16:33:00,
2013-04-11 12:42:00,-999.0,-99.9,29.84,SSW,197,6.0,7.0,-999,-99.99,,,-99.99,,2013-04-11 16:42:00,
2013-04-11 12:53:00,-999.0,-99.9,29.83,South,179,6.0,8.0,-999,-99.99,,,-99.99,,2013-04-11 16:53:00,
2013-04-11 13:03:00,77.0,-99.9,29.83,SSW,200,6.0,8.0,-999,-99.99,,,-99.99,,2013-04-11 17:03:00,
2013-04-11 13:13:00,78.0,-99.9,29.82,SSW,209,6.0,10.0,-999,-99.99,,,-99.99,,2013-04-11 17:13:00,
2013-04-11 13:23:00,-999.0,-99.9,29.82,SSW,193,9.0,11.0,-999,-99.99,,,-99.99,,2013-04-11 17:23:00,
2013-04-11 13:33:00,78.0,-99.9,29.81,SSW,197,9.0,11.0,-999,-99.99,,,-99.99,,2013-04-11 17:33:00,
2013-04-11 13:43:00,-999.0,-99.9,29.81,SSW,204,8.0,10.0,-999,-99.99,,,-99.99,,2013-04-11 17:43:00,
2013-04-11 13:53:00,-999.0,-99.9,29.81,South,171,8.0,9.0,-999,-99.99,,,-99.99,,2013-04-11 17:53:00,
2013-04-11 14:03:00,78.0,-99.9,29.80,South,175,8.0,9.0,-999,-99.99,,,-99.99,,2013-04-11 18:03:00,
2013-04-11 14:13:00,77.0,-99.9,29.79,South,176,8.0,9.0,-999,-99.99,,,-99.99,,2013-04-11 18:13:00,
2013-04-11 14:23:00,-999.0,-99.9,29.79,South,177,9.0,11.0,-999,-99.99,,,-99.99,,2013-04-11 18:23:00,
2013-04-11 14:33:00,78.0,-99.9,29.78,South,176,9.0,11.0,-999,-99.99,,,-99.99,,2013-04-11 18:33:00,
2013-04-11 14:43:00,-999.0,-99.9,29.78,South,175,11.0,12.0,-999,-99.99,,,-99.99,,2013-04-11 18:43:00,
2013-04-11 14:53:00,80.0,-99.9,29.78,North,-999,-999.0,-999.0,-999,-99.99,,,-99.99,,2013-04-11 18:53:00,
2013-04-11 15:04:00,80.0,-99.9,29.78,South,180,9.0,10.0,-999,-99.99,,,-99.99,,2013-04-11 19:04:00,
2013-04-11 15:14:00,80.0,-99.9,29.77,North,-999,-999.0,-999.0,-999,-99.99,,,-99.99,,2013-04-11 19:14:00,
2013-04-11 15:23:00,81.0,-99.9,29.77,North,-999,-999.0,-999.0,-999,-99.99,,,-99.99,,2013-04-11 19:23:00,
2013-04-11 15:33:00,82.0,-99.9,29.76,South,172,8.0,10.0,-999,-99.99,,,-99.99,,2013-04-11 19:33:00,
2013-04-11 15:43:00,81.0,-99.9,29.76,South,190,5.0,9.0,-999,-99.99,,,-99.99,,2013-04-11 19:43:00,
2013-04-11 15:53:00,-999.0,-99.9,29.75,South,176,5.0,6.0,-999,-99.99,,,-99.99,,2013-04-11 19:53:00,
2013-04-11 16:03:00,80.0,-99.9,29.75,South,186,8.0,10.0,-999,-99.99,,,-99.99,,2013-04-11 20:03:00,
2013-04-11 16:13:00,82.0,-99.9,29.74,North,-999,-999.0,-999.0,-999,-99.99,,,-99.99,,2013-04-11 20:13:00,
2013-04-11 16:22:00,81.0,-99.9,29.74,North,-999,-999.0,-999.0,-999,-99.99,,,-99.99,,2013-04-11 20:22:00,
2013-04-11 16:34:00,82.0,-99.9,29.73,SSE,168,8.0,11.0,-999,-99.99,,,-99.99,,2013-04-11 20:34:00,
2013-04-11 16:43:00,83.0,-99.9,29.73,SSE,151,8.0,10.0,-999,-99.99,,,-99.99,,2013-04-11 20:43:00,
2013-04-11 16:53:00,83.0,-99.9,29.73,North,-999,-999.0,-999.0,-999,-99.99,,,-99.99,,2013-04-11 20:53:00,
2013-04-11 17:03:00,85.0,-99.9,29.72,SSE,155,5.0,8.0,-999,-99.99,,,-99.99,,2013-04-11 21:03:00,
2013-04-11 17:13:00,85.0,-99.9,29.72,SSE,155,5.0,8.0,-999,-99.99,,,-99.99,,2013-04-11 21:13:00,
2013-04-11 17:23:00,-999.0,-99.9,29.71,SSE,156,4.0,8.0,-999,-99.99,,,-99.99,,2013-04-11 21:23:00,
2013-04-11 17:33:00,80.0,-99.9,29.72,South,172,11.0,11.0,-999,-99.99,,,-99.99,,2013-04-11 21:33:00,
2013-04-11 17:43:00,81.0,-99.9,29.72,North,-999,-999.0,-999.0,-999,-99.99,,,-99.99,,2013-04-11 21:43:00,
2013-04-11 17:54:00,83.0,-99.9,29.72,North,-999,-999.0,-999.0,-999,-99.99,,,-99.99,,2013-04-11 21:54:00,
2013-04-11 18:03:00,81.0,-99.9,29.72,South,181,9.0,11.0,-999,-99.99,,,-99.99,,2013-04-11 22:03:00,
2013-04-11 18:13:00,81.0,-99.9,29.72,South,172,12.0,17.0,-999,-99.99,,,-99.99,,2013-04-11 22:13:00,
2013-04-11 18:23:00,-999.0,-99.9,29.72,South,171,11.0,14.0,-999,-99.99,,,-99.99,,2013-04-11 22:23:00,
2013-04-11 18:33:00,81.0,-99.9,29.72,SSE,167,11.0,15.0,-999,-99.99,,,-99.99,,2013-04-11 22:33:00,
2013-04-11 18:44:00,81.0,-99.9,29.73,North,-999,-999.0,-999.0,-999,-99.99,,,-99.99,,2013-04-11 22:44:00,
2013-04-11 18:53:00,-999.0,-99.9,29.73,SSW,192,6.0,12.0,-999,-99.99,,,-99.99,,2013-04-11 22:53:00,
2013-04-11 19:04:00,80.0,-99.9,29.72,SE,142,6.0,10.0,-999,-99.99,,,-99.99,,2013-04-11 23:04:00,
2013-04-11 19:13:00,80.0,-99.9,29.73,East,99,7.0,16.0,-999,-99.99,,,-99.99,,2013-04-11 23:13:00,
2013-04-11 19:23:00,75.0,-99.9,29.73,North,-999,-999.0,-999.0,-999,-99.99,,,-99.99,,2013-04-11 23:23:00,
2013-04-11 19:33:00,73.0,-99.9,29.75,East,89,8.0,17.0,-999,-99.99,,,-99.99,,2013-04-11 23:33:00,
2013-04-11 19:43:00,72.0,-99.9,29.75,North,-999,-999.0,-999.0,-999,-99.99,,,-99.99,,2013-04-11 23:43:00,
2013-04-11 19:54:00,-999.0,-99.9,29.76,ENE,72,7.0,17.0,-999,-99.99,,,-99.99,,2013-04-11 23:54:00,
2013-04-11 20:02:00,68.0,-99.9,29.76,East,84,5.0,17.0,-999,-99.99,,,-99.99,,2013-04-12 00:02:00,
2013-04-11 20:12:00,-999.0,-99.9,29.77,ENE,67,6.0,21.0,-999,-99.99,,,-99.99,,2013-04-12 00:12:00,
2013-04-11 20:22:00,66.0,-99.9,29.78,North,-999,-999.0,-999.0,-999,-99.99,,,-99.99,,2013-04-12 00:22:00,
2013-04-11 20:33:00,66.0,-99.9,29.78,East,82,7.0,15.0,-999,-99.99,,,-99.99,,2013-04-12 00:33:00,
2013-04-11 20:43:00,64.0,-99.9,29.79,North,-999,-999.0,-999.0,-999,-99.99,,,-99.99,,2013-04-12 00:43:00,
2013-04-11 20:53:00,63.0,-99.9,29.79,North,-999,-999.0,-999.0,-999,-99.99,,,-99.99,,2013-04-12 00:53:00,
2013-04-11 21:03:00,62.0,-99.9,29.80,ENE,64,6.0,14.0,-999,-99.99,,,-99.99,,2013-04-12 01:03:00,
2013-04-11 21:12:00,61.0,-99.9,29.80,North,-999,-999.0,-999.0,-999,-99.99,,,-99.99,,2013-04-12 01:12:00,
2013-04-11 21:23:00,61.0,-99.9,29.81,North,-999,-999.0,-999.0,-999,-99.99,,,-99.99,,2013-04-12 01:23:00,
2013-04-11 21:33:00,60.0,-99.9,29.82,ENE,70,6.0,13.0,-999,-99.99,,,-99.99,,2013-04-12 01:33:00,
2013-04-11 21:42:00,60.0,-99.9,29.83,ENE,62,5.0,17.0,-999,-99.99,,,-99.99,,2013-04-12 01:42:00,
2013-04-11 21:53:00,-999.0,-99.9,29.83,ENE,68,7.0,14.0,-999,-99.99,,,-99.99,,2013-04-12 01:53:00,
2013-04-11 22:03:00,60.0,-99.9,29.82,ENE,69,5.0,13.0,-999,-99.99,,,-99.99,,2013-04-12 02:03:00,
2013-04-11 22:12:00,59.0,-99.9,29.83,North,-999,-999.0,-999.0,-999,-99.99,,,-99.99,,2013-04-12 02:12:00,
2013-04-11 22:23:00,60.0,-99.9,29.83,North,-999,-999.0,-999.0,-999,-99.99,,,-99.99,,2013-04-12 02:23:00,
2013-04-11 22:33:00,59.0,-99.9,29.82,East,82,4.0,9.0,-999,-99.99,,,-99.99,,2013-04-12 02:33:00,
2013-04-11 22:42:00,59.0,-99.9,29.82,ENE,64,7.0,11.0,-999,-99.99,,,-99.99,,2013-04-12 02:42:00,
2013-04-11 22:53:00,-999.0,-99.9,29.81,ENE,73,7.0,17.0,-999,-99.99,,,-99.99,,2013-04-12 02:53:00,
2013-04-11 23:02:00,59.0,-99.9,29.81,ENE,66,8.0,13.0,-999,-99.99,,,-99.99,,2013-04-12 03:02:00,
2013-04-11 23:12:00,59.0,-99.9,29.81,ENE,66,8.0,13.0,-999,-99.99,,,-99.99,,2013-04-12 03:12:00,
2013-04-11 23:22:00,59.0,-99.9,29.81,North,-999,-999.0,-999.0,-999,-99.99,,,-99.99,,2013-04-12 03:22:00,
2013-04-11 23:33:00,58.0,-99.9,29.80,ENE,74,5.0,11.0,-999,-99.99,,,-99.99,,2013-04-12 03:33:00,
2013-04-11 23:43:00,-999.0,-99.9,29.81,ENE,59,7.0,10.0,-999,-99.99,,,-99.99,,2013-04-12 03:43:00,
2013-04-11 23:53:00,57.0,-99.9,29.81,North,-999,-999.0,-999.0,-999,-99.99,,,-99.99,,2013-04-12 03:53:00,